Location: Tauranga
(37.6860°S, 176.1670°E)
Time: 18:16:13
(UTC+13:00)

CZ-2C R/B - Pass Details

Date: 24 January 2019
Orbit: 785 x 870 km, 98.3° (Epoch: 16 February)

Event Time Altitude Azimuth Distance (km) Brightness Sun altitude
Exits shadow 21:48:37 17° 32° (NNE) 2,029 4.1 -13.3°
Maximum altitude 21:52:48 58° 107° (ESE) 975 2.8 -14.0°
Drops below altitude 10° 21:58:06 10° 184° (S) 2,440 5.7 -14.8°
Sets 22:00:28 0° 188° (S) 3,367 6.6 -15.2°
